Find Starlink 34578

NORAD ID: 64856 Int'l Des: 2025-152 Owner: SPXS Country: US Constellation: starlink operational
LEOCIRCULARRETROGRADESSO

現在のビュー

3D地球を読み込み中...

About Starlink 34578

Starlink 34578 (NORAD 64856) is a starlink constellation satellite (v2 mini) launched Jul 19, 2025 by SPXS of US. It operates in LEO, CIRCULAR, RETROGRADE, SSO orbit with a mass of 575.00 kg.

次回通過

Passes for default location (London). Set your location on the main map for personalized predictions.

高度履歴

Loading altitude history...

軌道要素

1 64856U 25152Q 26264.01338726 .00009541 00000-0 29738-3 0 9995
2 64856 97.2860 114.5920 0001639 92.6216 267.5214 15.33455201 64905
Epoch: Sep 21, 2026 • Age: 11 hours

現在のステータス

高度 468.8 km
遠地点 / 近地点 N/A
速度 7.63 km/s
衛星直下点 29.33°N, 60.58°W
打ち上げ日 Jul 19, 2025
運用期間 1.1 years
タイプ internet

技術仕様

分類 Payload
質量 575.00 kg
乾燥質量 530.00 kg
長さ 0.30 m
スパン 29.00 m
形状 ? Box + pan
製造者 SPXS
バスタイプ Starlink V2MO
フェーズステータス In Orbit
所有者/国 SPXS/US

Most Searched